Location: Albuquerque Trailhead
(34.7934°N, 106.3736°W)
Time: 02:26:59
(UTC+00:00)

Cosmos 1151 Rocket - Pass Details

Date: 20 June 2021
Orbit: 592 x 616 km, 82.5° (Epoch: 27 July)

Event Time Altitude Azimuth Distance (km) Brightness Sun altitude
Rises 09:18:32 0° 3° (N) 2,835 7.4 -24.0°
Reaches altitude 10° 09:20:55 10° 13° (NNE) 1,928 6.5 -23.7°
Maximum altitude 09:24:48 34° 79° (E) 984 4.4 -23.2°
Enters shadow 09:27:03 20° 131° (SE) 1,374 4.7 -23.0°
